User: anonymous   Login
Location: Hamburg
(53.5500°N, 10.0000°E)
Time: 15:43:38
(UTC+02:00)
Language:

Courier 1B - Orbit

View from above orbital plane
View from above orbital plane
View from above satellite
View from above satellite

Ground track
Ground track

The orbit data is extracted from the following two-line orbital elements,

1 00058U 60013A   15087.16405665  .00000107  00000-0  34986-4 0  9999
2 00058 028.3277 055.6904 0165100 110.6568 251.1762 13.46290838681792
Epoch (UTC): 28 March 2015 03:56:14
Eccentricity: 0.0165100
inclination: 28.3277°
perigee height: 963 km
apogee height: 1209 km
right ascension of ascending node: 55.6904°
argument of perigee: 110.6568°
revolutions per day: 13.46290838
mean anomaly at epoch: 251.1762°
orbit number at epoch: 68179

The dashed part of the orbit path shows where the satellite is in the earth's shadow,  

DLR